Home > Time Zones > World Clock > Weather > Germany > Ulm > Past weeks

Flag for Germany Weather past 2 weeks in Ulm, Baden-Württemberg, Germany

Now
43 °F

Quite cool.


Feels Like: 40 °F
Forecast: 29 / 52 °F
Wind: 5 mph from West

Location: Laupheim Airport


UV Index: 3 (Moderate)

Visibility: 5 mi


Pressure: 29.86 "Hg

Humidity: 61%

Dew point: 30 °F

Location of UlmLocation

Historic Weather in Ulm

°F

Ulm temperature yesterday

Maximum temperature yesterday: 55 °F (at 4:20 PM)
Minimum temperature yesterday: 30 °F (at 3:20 AM)
Average temperature yesterday: 43 °F

Past Weeks' High & Low Weather Summary

 TemperatureHumidityPressure
High70 °F (Apr 3, 3:20 PM)100% (Apr 11, 5:20 AM)30.33 "Hg (Apr 11, 5:20 AM)
Low28 °F (Apr 16, 6:20 AM)23% (Apr 17, 6:20 PM)29.65 "Hg (Apr 3, 6:20 PM)
Average50 °F65%30.06 "Hg
* Reported Apr 3 7:20 AM — Apr 18 7:20 AM, Ulm, Weather by CustomWeather, © 2014

Note: Actual official high and low records may vary slightly from our data, if they occured in-between our weather recording intervals... More about our weather records

Advertising

Historic Weather Conditions — Data for Previous 24 hours

 ConditionsComfort  
Time TempWeatherWind HumidityBarometerVisibility
7:20 AM
Apr 18
43 °FQuite cool.6 mph61%29.86 "Hg5 mi
6:20 AM41 °FQuite cool.7 mph61%29.86 "Hg5 mi
5:20 AM41 °FQuite cool.8 mph61%29.89 "Hg5 mi
4:20 AM39 °FChilly.7 mph61%29.89 "Hg4 mi
3:20 AM37 °FChilly.7 mph60%29.92 "Hg5 mi
2:20 AM37 °FChilly.6 mph60%29.92 "Hg4 mi
1:20 AM37 °FChilly.5 mph60%29.95 "Hg4 mi
12:20 AM39 °FChilly.3 mph56%29.95 "Hg4 mi
11:20 PM
Apr 17
45 °FQuite cool.2 mph39%29.98 "Hg6 mi
10:20 PM48 °FCool.5 mph32%30.01 "Hg6 mi
9:20 PM48 °FCool.2 mph34%30.01 "HgN/A
8:20 PM52 °FCool.5 mph30%30.01 "HgN/A
6:20 PM55 °FPartly sunny.5 mph23%30.04 "HgN/A
5:20 PM55 °FPassing clouds.7 mph24%30.07 "HgN/A
5:00 PM55 °FPassing clouds.6 mph26%30.07 "HgN/A
4:20 PM55 °FPassing clouds.6 mph26%30.07 "HgN/A
3:20 PM54 °FPassing clouds.7 mph28%30.09 "HgN/A
2:20 PM54 °FPassing clouds.7 mph30%30.12 "HgN/A
1:20 PM52 °FPassing clouds.9 mph28%30.15 "HgN/A
12:20 PM50 °FPassing clouds.13 mph35%30.18 "HgN/A
11:20 AM46 °FPassing clouds.13 mph40%30.21 "HgN/A
10:20 AM45 °FQuite cool.10 mph49%30.24 "HgN/A
9:20 AM41 °FPassing clouds.8 mph66%30.24 "HgN/A
8:20 AM36 °FPassing clouds.5 mph81%30.24 "HgN/A
Weather by CustomWeather, © 2014

See weather overview